DW2629 Weather Reports


time (UTC)temp
C
wind
direction
speed
KPH
gust
KPH
rain 1hr
cm
rain 24hr
cm
rain mn
cm
humidity
%
barometer
mb
20260505004545 28 257 1.6 14.5 0.00 0.00 0.00 43 1008.2
20260505003051 28 306 1.6 14.5 0.00 0.00 0.00 44 1008.1
20260505001532 28 300 1.6 8.0 0.00 0.00 0.00 43 1008.3
20260505000035 29 304 4.8 14.5 0.00 0.00 0.00 43 1008.2
20260504234530 29 303 3.2 14.5 0.00 0.00 0.00 43 1008.3
20260504233034 28 306 9.7 16.1 0.00 0.00 0.00 40 1008.4
20260504231529 29 312 4.8 14.5 0.00 0.00 0.00 40 1008.4
20260504230029 29 308 3.2 12.9 0.00 0.00 0.00 45 1008.3
20260504224527 29 257 1.6 16.1 0.00 0.00 0.00 46 1008.3
20260504223027 29 263 6.4 14.5 0.00 0.00 0.00 40 1008.4
20260504221523 28 295 3.2 11.3 0.00 0.00 0.00 45 1008.7
20260504220021 28 304 0.0 6.4 0.00 0.00 0.00 43 1008.9
20260504214522 28 302 0.0 12.9 0.00 0.00 0.00 46 1009.0
20260504213024 28 309 0.0 9.7 0.00 0.00 0.00 43 1009.1
20260504211529 28 311 0.0 12.9 0.00 0.00 0.00 48 1009.2
20260504210016 28 309 3.2 12.9 0.00 0.00 0.00 44 1009.3
20260504204515 28 307 0.0 4.8 0.00 0.00 0.00 52 1009.3
20260504203010 27 306 0.0 1.6 0.00 0.00 0.00 49 1009.4
20260504201508 27 305 0.0 8.0 0.00 0.00 0.00 50 1009.4
20260504200008 27 305 0.0 12.9 0.00 0.00 0.00 50 1009.4
20260504194506 27 303 1.6 9.7 0.00 0.00 0.00 49 1009.6
20260504193004 27 309 0.0 9.7 0.00 0.00 0.00 52 1009.6
20260504191501 26 236 0.0 8.0 0.00 0.00 0.00 52 1009.6
20260504190108 25 231 1.6 9.7 0.00 0.00 0.00 54 1009.7
20260504184556 25 179 1.6 9.7 0.00 0.00 0.00 52 1009.7
20260504183052 24 94 0.0 3.2 0.00 0.00 0.00 58 1010.0
20260504181559 23 92 0.0 3.2 0.00 0.00 0.00 62 1009.9
20260504180053 23 205 0.0 6.4 0.00 0.00 0.00 55 1009.9
20260504174547 23 209 0.0 6.4 0.00 0.00 0.00 55 1009.9
20260504173052 22 277 1.6 9.7 0.00 0.00 0.00 61 1009.9
20260504171543 22 282 0.0 4.8 0.00 0.00 0.00 58 1009.9
20260504081533 11 304 0.0 0.0 0.00 0.00 0.00 92 1008.5
20260504044518 15 304 0.0 0.0 0.00 0.00 0.00 77 1008.6
20260504043019 16 304 0.0 0.0 0.00 0.00 0.00 75 1008.5
20260504041524 16 304 0.0 0.0 0.00 0.00 0.00 73 1008.5
20260504040013 17 304 0.0 1.6 0.00 0.00 0.00 70 1008.4
20260504034517 18 304 0.0 1.6 0.00 0.00 0.00 68 1008.2
20260504033014 19 304 0.0 0.0 0.00 0.00 0.00 61 1008.3
20260504031510 20 304 0.0 0.0 0.00 0.00 0.00 59 1008.3
20260504030010 21 304 0.0 3.2 0.00 0.00 0.00 58 1008.2
20260504024509 21 304 0.0 4.8 0.00 0.00 0.00 57 1008.2
20260504023008 21 304 0.0 9.7 0.00 0.00 0.00 55 1008.4
20260504021507 22 311 1.6 8.0 0.00 0.00 0.00 53 1008.3
20260504020010 23 304 0.0 4.8 0.00 0.00 0.00 52 1008.3
20260504014509 24 304 0.0 4.8 0.00 0.00 0.00 50 1008.5
20260504013005 25 303 4.8 14.5 0.00 0.00 0.00 48 1008.7
20260504011504 26 311 0.0 17.7 0.00 0.00 0.00 47 1008.7
20260504010002 26 312 3.2 17.7 0.00 0.00 0.00 47 1008.8